Zurück zum Katalog

CZ-6A DEB

AktivSSO
NORAD 54341·DEBRIS·🇨🇳 China

Gestartet Nov 11, 2022 von Taiyuan Satellite Launch Center

Loading…

Nächste Überflüge (nächste 24 Stunden)

TLE

AktuellSource: Space-Track

Epoche: Sep 13, 2026, 18:14 UTC

1 54341U 22151CL  26256.75989474  .00000744  00000-0  34001-3 0  9998
2 54341  98.7662 276.0549 0047985  87.3435 273.3235 14.23847201198525

Verfolge CZ-6A DEB in Echtzeit mit AllMySat

Download on the App Store